Temp
70 73 79 81 83 83 83 83 83 83 83 83 83 83 84 83 84 84 84 84 84 84 84 84 84 84 84 84 84 84 84 83 84 83 82 82 82 83 83 83 82 83 82
73 75 79 81 83 83 83 83 83 83 83 83 83 83 83 83 84 84 84 84 84 84 84 84 84 83 84 84 84 83 83 83 83 83 83 83 83 82 82 82 82 83 82
73 75 78 82 83 83 82 83 83 83 83 83 83 84 84 84 84 84 84 84 84 84 84 84 84 84 83 83 83 83 83 82 82 82 82 82 82 82 83 82 82 82 81
74 74 77 81 83 83 83 83 83 84 83 83 83 84 84 84 84 84 84 84 83 83 84 83 84 83 83 83 83 83 83 83 82 81 79 80 83 82 82 82 81 81 81
74 75 77 82 83 83 83 83 83 83 83 83 84 84 84 84 84 84 84 84 83 83 83 83 83 83 83 83 83 82 82 82 82 80 78 78 80 82 82 82 82 81 80
74 77 80 82 83 83 83 83 83 83 83 84 84 84 84 84 84 84 84 84 84 83 83 83 84 83 83 83 83 83 83 83 80 78 78 80 79 82 82 82 82 81 81
74 76 79 82 83 83 83 83 83 83 83 84 84 84 83 83 83 83 84 84 83 83 83 84 84 84 84 84 83 83 83 81 77 77 76 77 79 81 82 82 82 81 80
75 76 78 82 83 83 83 83 83 83 84 84 84 83 83 83 83 83 83 83 83 83 83 84 84 84 84 84 83 83 82 81 79 76 76 77 79 81 81 81 81 80 80
77 76 76 77 81 83 83 83 83 84 84 83 83 83 83 83 83 83 83 83 83 83 84 84 84 83 83 83 83 83 82 81 77 77 78 77 79 81 81 80 80 80 80
75 75 74 75 77 79 80 83 83 83 83 83 83 83 83 83 84 84 82 82 84 84 84 85 84 84 83 83 83 83 82 80 76 76 76 77 79 81 81 80 80 80 80
73 72 74 75 74 76 79 81 82 84 84 83 82 84 78 76 78 80 82 84 85 85 85 85 84 84 83 83 83 83 82 76 75 75 75 76 79 80 81 80 80 80 80
70 71 71 74 76 76 81 77 77 79 77 76 76 76 75 76 77 81 81 83 84 84 85 84 84 84 84 81 80 83 80 77 76 75 75 77 80 81 81 81 80 80 80
71 73 73 74 75 76 76 74 74 75 75 75 76 76 75 76 76 77 77 77 76 80 80 81 82 82 81 81 80 80 80 78 77 77 78 78 80 81 82 81 81 80 81
71 73 73 74 74 73 73 73 74 75 75 75 75 76 75 75 75 75 75 75 76 77 79 79 80 80 80 81 81 81 80 79 77 77 77 79 80 80 82 82 81 81 81
71 72 73 73 72 73 73 73 73 74 75 75 75 76 76 75 74 75 76 76 76 77 79 79 79 80 80 81 81 80 82 80 80 78 77 79 80 80 81 82 82 81 81
72 72 73 73 73 72 72 72 73 74 75 75 75 76 77 76 75 75 75 75 76 76 77 77 78 78 79 81 81 81 81 81 80 79 79 79 80 80 80 81 82 82 81
73 74 73 73 73 72 72 73 73 74 77 75 75 76 77 77 77 77 76 76 76 77 77 77 79 79 79 82 80 80 80 80 79 79 79 79 80 80 81 81 81 81 81
74 73 73 79 75 72 72 73 74 75 75 76 76 76 77 78 77 77 77 77 77 77 77 77 78 79 79 79 79 80 80 80 80 80 80 80 79 82 80 80 80 80 81
75 74 73 74 74 73 73 73 73 75 75 76 76 76 76 78 79 77 77 77 77 77 77 78 78 77 78 79 81 82 80 80 80 85 80 80 80 81 81 80 80 80 81
77 76 75 74 74 73 74 73 74 74 75 76 76 76 77 77 78 77 77 77 78 77 77 77 77 78 79 78 82 82 80 80 80 79 81 84 82 81 82 80 80 82 80
77 75 74 73 72 72 72 71 72 73 74 75 76 77 77 76 78 76 76 76 78 77 77 77 77 76 78 78 77 78 79 80 81 81 81 81 82 83 82 80 80 81 81
76 75 73 74 72 73 74 72 73 73 74 75 76 76 77 77 77 76 75 75 76 77 77 77 76 75 76 77 76 73 72 77 80 81 80 81 82 82 84 84 82 82 81
75 74 74 74 74 74 73 73 73 73 73 73 74 75 76 77 77 76 76 76 75 76 76 77 76 75 75 76 77 77 73 71 72 78 80 81 80 82 83 83 84 82 81
76 77 76 74 73 74 72 72 72 72 71 72 73 75 76 77 77 77 76 76 75 75 75 76 78 76 74 75 76 78 76 75 73 72 78 79 80 82 81 82 82 81 80
77 76 75 73 73 73 72 73 72 71 72 73 73 74 74 75 76 77 77 76 75 75 75 75 76 75 75 75 75 76 75 75 74 72 72 76 79 81 82 82 82 81 81
77 77 76 73 72 73 73 73 72 71 72 71 72 71 73 74 75 76 77 76 75 75 75 76 75 75 75 75 75 75 75 75 75 73 71 73 73 77 80 81 81 80 82
MSLP
1016.20 1016.12 1016.01 1015.90 1015.77 1015.82 1015.85 1015.87 1015.88 1015.85 1015.74 1015.89 1016.03 1016.02 1016.12 1016.15 1016.19 1016.18 1016.17 1016.25 1016.34 1016.26 1016.35 1016.50 1016.62 1016.73 1016.71 1016.68 1016.74 1016.96 1017.16 1017.19 1017.20 1017.30 1017.42 1017.56 1017.66 1017.71 1017.79 1017.96 1018.12 1018.20 1018.33
1015.85 1016.18 1016.21 1016.17 1016.12 1016.19 1016.11 1016.14 1016.23 1016.21 1016.26 1016.37 1016.44 1016.51 1016.59 1016.55 1016.55 1016.54 1016.57 1016.58 1016.66 1016.72 1016.81 1016.90 1017.00 1017.07 1017.15 1017.11 1017.19 1017.42 1017.47 1017.49 1017.51 1017.56 1017.65 1017.78 1017.90 1017.99 1018.19 1018.30 1018.45 1018.48 1018.57
1016.08 1016.32 1016.40 1016.29 1016.39 1016.46 1016.56 1016.45 1016.53 1016.56 1016.72 1016.75 1016.79 1016.79 1016.84 1016.85 1016.88 1016.87 1016.95 1016.97 1017.08 1017.17 1017.21 1017.34 1017.43 1017.47 1017.54 1017.59 1017.62 1017.69 1017.74 1017.84 1017.88 1017.99 1018.05 1018.21 1018.25 1018.28 1018.28 1018.38 1018.60 1018.72 1018.78
1016.11 1016.50 1016.67 1016.69 1016.71 1016.79 1016.74 1016.83 1016.84 1016.85 1016.98 1017.08 1017.14 1017.13 1017.12 1017.14 1017.17 1017.16 1017.25 1017.38 1017.49 1017.57 1017.62 1017.65 1017.72 1017.82 1017.87 1017.97 1018.00 1017.99 1017.99 1018.10 1018.21 1018.39 1018.50 1018.49 1018.38 1018.43 1018.49 1018.64 1018.80 1018.89 1018.99
1016.40 1016.77 1016.86 1016.91 1016.97 1017.03 1017.04 1017.04 1017.14 1017.31 1017.33 1017.37 1017.41 1017.41 1017.44 1017.54 1017.54 1017.55 1017.66 1017.76 1017.90 1017.91 1017.96 1017.96 1018.01 1018.09 1018.15 1018.25 1018.28 1018.25 1018.23 1018.31 1018.45 1018.66 1018.79 1018.79 1018.72 1018.68 1018.78 1018.84 1018.88 1019.05 1019.24
1016.66 1016.92 1016.91 1017.09 1017.19 1017.26 1017.22 1017.36 1017.46 1017.63 1017.65 1017.67 1017.68 1017.76 1017.84 1017.89 1017.85 1017.91 1017.98 1018.04 1018.08 1018.17 1018.24 1018.26 1018.30 1018.34 1018.42 1018.49 1018.45 1018.39 1018.38 1018.42 1018.84 1019.03 1019.08 1019.01 1019.06 1018.98 1019.05 1019.06 1019.20 1019.33 1019.50
1017.00 1017.10 1017.11 1017.27 1017.34 1017.45 1017.51 1017.58 1017.72 1017.89 1017.91 1018.01 1018.02 1018.12 1018.21 1018.25 1018.16 1018.10 1018.22 1018.31 1018.38 1018.46 1018.51 1018.57 1018.61 1018.60 1018.61 1018.63 1018.54 1018.40 1018.66 1018.84 1019.14 1019.31 1019.37 1019.35 1019.33 1019.29 1019.26 1019.25 1019.42 1019.58 1019.78
1017.12 1017.30 1017.37 1017.40 1017.53 1017.68 1017.71 1017.83 1018.04 1018.11 1018.17 1018.33 1018.41 1018.49 1018.55 1018.53 1018.51 1018.52 1018.57 1018.61 1018.69 1018.74 1018.81 1018.87 1018.86 1018.81 1018.81 1018.78 1018.74 1018.78 1018.92 1019.03 1019.29 1019.51 1019.57 1019.53 1019.54 1019.51 1019.40 1019.51 1019.63 1019.91 1019.97
1017.32 1017.57 1017.69 1017.76 1017.82 1017.91 1017.94 1018.18 1018.30 1018.39 1018.49 1018.63 1018.70 1018.80 1018.82 1018.80 1018.87 1018.93 1018.97 1018.96 1018.95 1018.99 1019.03 1019.05 1018.97 1018.95 1018.97 1018.96 1018.90 1018.99 1019.14 1019.26 1019.59 1019.68 1019.71 1019.78 1019.71 1019.60 1019.51 1019.77 1019.86 1020.07 1020.11
1017.71 1017.88 1018.07 1018.13 1018.17 1018.31 1018.37 1018.44 1018.52 1018.70 1018.81 1018.87 1018.91 1019.02 1019.04 1019.12 1019.15 1019.11 1019.18 1019.14 1019.13 1019.15 1019.11 1019.05 1018.99 1019.02 1019.05 1019.04 1019.01 1019.06 1019.30 1019.47 1019.79 1019.90 1020.01 1019.98 1019.80 1019.63 1019.55 1019.82 1019.88 1020.11 1020.13
1018.25 1018.36 1018.25 1018.35 1018.60 1018.64 1018.69 1018.73 1018.89 1018.97 1019.06 1019.10 1019.17 1019.23 1019.44 1019.55 1019.55 1019.40 1019.26 1019.29 1019.22 1019.20 1019.13 1019.05 1019.02 1019.02 1019.01 1019.05 1019.06 1019.14 1019.37 1019.76 1019.94 1020.11 1020.18 1020.11 1019.97 1019.80 1019.65 1019.89 1019.90 1020.10 1020.09
1018.40 1018.62 1018.62 1018.65 1018.82 1018.87 1018.82 1019.19 1019.34 1019.33 1019.45 1019.54 1019.62 1019.70 1019.85 1019.73 1019.57 1019.48 1019.40 1019.38 1019.33 1019.28 1019.16 1019.05 1019.02 1018.98 1018.94 1019.07 1019.17 1019.15 1019.44 1019.73 1019.92 1020.04 1020.10 1020.07 1020.08 1019.94 1019.73 1019.87 1019.90 1020.06 1019.99
1018.31 1018.65 1018.93 1018.90 1018.94 1019.14 1019.33 1019.57 1019.58 1019.64 1019.72 1019.78 1019.87 1019.89 1019.93 1019.94 1019.81 1019.63 1019.76 1019.82 1019.65 1019.44 1019.31 1019.17 1019.04 1018.98 1018.98 1019.05 1019.13 1019.27 1019.40 1019.62 1019.84 1019.96 1019.92 1019.97 1020.02 1019.97 1019.78 1019.75 1019.79 1019.91 1019.91
1018.38 1018.53 1018.73 1018.91 1019.22 1019.45 1019.63 1019.80 1019.81 1019.79 1019.84 1020.00 1020.05 1020.03 1020.04 1019.94 1019.79 1019.68 1019.76 1019.73 1019.65 1019.54 1019.40 1019.16 1019.06 1018.96 1018.95 1018.97 1018.99 1019.05 1019.21 1019.44 1019.60 1019.76 1019.83 1019.84 1019.88 1019.88 1019.73 1019.66 1019.68 1019.75 1019.83
1018.43 1018.53 1018.68 1018.79 1019.16 1019.37 1019.60 1019.82 1019.93 1019.94 1019.99 1020.11 1020.07 1020.11 1020.11 1020.08 1019.96 1019.85 1019.84 1019.81 1019.73 1019.57 1019.37 1019.30 1019.20 1019.04 1018.89 1018.76 1018.74 1018.85 1018.86 1018.96 1019.16 1019.43 1019.59 1019.58 1019.58 1019.74 1019.71 1019.63 1019.55 1019.53 1019.64
1018.38 1018.56 1018.86 1018.95 1019.01 1019.36 1019.50 1019.64 1019.77 1019.91 1020.00 1020.08 1020.03 1020.07 1020.03 1020.12 1020.07 1019.93 1019.96 1020.03 1019.88 1019.67 1019.47 1019.40 1019.26 1019.08 1018.84 1018.62 1018.51 1018.57 1018.67 1018.70 1018.97 1019.21 1019.22 1019.36 1019.39 1019.53 1019.59 1019.51 1019.43 1019.40 1019.38
1018.11 1018.41 1018.55 1018.91 1019.10 1019.27 1019.41 1019.52 1019.61 1019.69 1019.82 1019.92 1019.95 1019.93 1019.91 1020.00 1020.02 1019.95 1020.03 1020.07 1020.04 1019.76 1019.60 1019.50 1019.26 1018.92 1018.82 1018.58 1018.57 1018.46 1018.51 1018.49 1018.67 1018.77 1018.91 1019.06 1019.14 1019.25 1019.31 1019.22 1019.18 1019.18 1019.17
1017.93 1018.31 1018.56 1018.64 1018.88 1019.18 1019.32 1019.38 1019.52 1019.65 1019.72 1019.78 1019.91 1019.87 1019.81 1019.93 1019.99 1019.92 1020.05 1020.11 1020.08 1019.85 1019.76 1019.60 1019.36 1019.23 1019.19 1019.10 1018.91 1018.61 1018.50 1018.53 1018.48 1018.49 1018.64 1018.75 1018.75 1018.76 1018.87 1018.83 1018.75 1018.85 1018.97
1017.43 1017.87 1018.34 1018.59 1018.73 1019.07 1019.21 1019.43 1019.60 1019.62 1019.70 1019.69 1019.80 1019.83 1019.89 1019.96 1020.01 1020.06 1020.13 1020.17 1020.10 1019.93 1019.89 1019.85 1019.75 1019.79 1019.57 1019.32 1019.03 1018.68 1018.46 1018.29 1018.08 1017.91 1018.05 1018.26 1018.32 1018.30 1018.26 1018.32 1018.28 1018.32 1018.38
1017.30 1017.85 1018.28 1018.60 1018.84 1019.11 1019.32 1019.59 1019.64 1019.70 1019.63 1019.61 1019.71 1019.76 1019.77 1019.88 1019.96 1020.10 1020.23 1020.14 1020.10 1019.95 1020.04 1020.01 1020.09 1019.94 1019.84 1019.65 1019.22 1018.74 1018.49 1018.21 1018.00 1017.94 1017.81 1017.80 1017.90 1017.94 1017.96 1017.97 1018.04 1017.65 1017.60
1017.14 1017.64 1017.84 1018.37 1018.67 1019.01 1019.32 1019.58 1019.74 1019.75 1019.71 1019.64 1019.46 1019.41 1019.58 1019.76 1019.89 1020.07 1020.19 1020.22 1020.04 1020.13 1020.14 1020.23 1020.23 1020.25 1020.00 1019.75 1019.41 1018.81 1018.39 1018.18 1018.08 1017.94 1017.82 1017.70 1017.55 1017.52 1017.53 1017.56 1017.50 1017.36 1017.18
1016.47 1017.11 1017.68 1017.91 1018.31 1018.67 1018.89 1019.11 1019.26 1019.33 1019.35 1019.29 1019.20 1019.28 1019.34 1019.47 1019.67 1019.97 1019.90 1019.96 1020.00 1020.07 1020.09 1020.25 1020.38 1020.45 1020.35 1020.06 1020.08 1020.02 1019.48 1018.75 1018.41 1018.30 1018.15 1017.90 1017.70 1017.53 1017.40 1017.22 1017.17 1017.03 1016.89
1016.33 1016.65 1017.06 1017.48 1017.88 1018.15 1018.67 1019.04 1019.30 1019.32 1019.37 1019.37 1019.22 1019.15 1019.03 1019.10 1019.22 1019.46 1019.54 1019.60 1019.69 1019.87 1019.95 1019.97 1020.13 1020.40 1020.44 1020.18 1020.11 1020.27 1020.13 1020.01 1019.60 1018.66 1018.39 1018.19 1017.88 1017.67 1017.44 1017.25 1017.04 1016.95 1016.69
1015.88 1016.24 1016.72 1017.14 1017.54 1017.99 1018.35 1018.84 1019.07 1019.14 1019.34 1019.20 1019.02 1018.91 1018.88 1018.89 1018.95 1019.02 1019.12 1019.14 1019.24 1019.44 1019.70 1019.60 1019.63 1020.01 1020.35 1020.28 1020.12 1020.09 1020.18 1020.19 1020.03 1019.58 1018.71 1018.30 1018.08 1017.83 1017.59 1017.22 1017.08 1016.90 1016.63
1015.76 1016.15 1016.70 1017.14 1017.49 1017.79 1018.24 1018.53 1018.90 1019.20 1019.12 1018.96 1019.02 1018.96 1018.83 1018.65 1018.73 1018.69 1018.71 1018.76 1018.87 1018.95 1019.19 1019.35 1019.43 1019.74 1020.05 1020.21 1020.14 1020.07 1020.05 1020.05 1020.05 1020.00 1019.34 1018.72 1018.22 1017.89 1017.57 1017.26 1017.06 1016.81 1016.38
1015.66 1016.15 1016.54 1017.04 1017.54 1017.92 1018.37 1018.72 1018.84 1019.06 1019.09 1019.17 1019.05 1019.02 1018.72 1018.49 1018.36 1018.31 1018.36 1018.42 1018.44 1018.54 1018.67 1018.72 1018.94 1019.25 1019.49 1019.68 1019.75 1019.79 1019.83 1019.78 1019.64 1019.64 1019.51 1019.04 1018.71 1017.98 1017.67 1017.25 1016.98 1016.63 1016.22
Wind_Speed
2 2 1 5 9 11 11 12 13 14 15 14 13 14 14 14 15 14 14 14 14 16 16 15 14 14 14 14 14 14 13 13 12 12 13 13 13 13 13 13 12 11 12
7 3 1 7 9 9 11 12 13 14 14 14 13 14 13 13 13 14 14 13 13 15 14 14 14 14 14 14 13 13 12 12 12 10 12 10 12 12 12 13 11 10 11
6 3 2 6 8 9 10 12 12 13 14 13 13 13 13 12 13 13 13 12 14 13 13 12 13 13 13 12 12 12 11 10 11 10 11 6 7 10 11 10 10 10 10
8 4 2 6 8 9 10 10 10 12 12 11 11 11 12 12 12 13 13 12 12 11 12 11 11 11 11 10 9 8 8 9 9 8 4 4 6 9 9 10 10 9 9
6 4 4 7 8 8 8 9 10 10 10 10 10 10 11 12 13 13 12 11 10 10 10 10 9 9 8 7 5 4 1 4 7 6 4 4 3 7 8 8 8 8 8
6 4 6 8 9 8 7 10 10 9 9 9 10 10 11 10 11 11 10 10 9 8 8 7 7 7 6 5 4 3 4 6 8 4 3 4 3 6 6 7 6 6 5
6 4 5 8 9 8 8 10 9 8 8 8 9 9 9 9 9 10 9 10 9 7 6 6 6 5 5 7 7 4 8 8 5 4 3 3 3 5 3 6 6 5 4
7 5 4 8 9 8 8 10 8 6 7 7 8 8 7 9 9 10 10 9 8 7 6 6 6 6 7 8 7 8 7 6 4 3 2 2 2 3 2 6 5 4 3
5 5 3 4 7 8 9 8 7 6 6 6 6 5 6 7 8 7 8 7 7 7 6 5 6 6 6 8 8 6 4 4 3 2 2 1 2 3 3 3 3 4 3
4 3 4 3 3 2 4 7 5 6 4 4 4 4 6 8 7 6 6 5 5 4 4 4 3 3 4 5 7 3 3 3 2 1 0 1 1 3 3 3 3 4 3
5 3 5 4 5 3 3 4 4 4 3 2 3 3 7 3 4 5 5 5 5 5 4 3 3 3 3 4 3 3 4 1 1 1 2 5 5 6 7 6 5 4 4
6 4 3 4 3 3 2 4 2 2 3 3 3 4 3 3 3 4 6 9 9 9 8 7 6 5 4 2 1 1 1 2 1 2 2 6 6 8 8 7 7 6 6
6 5 5 4 3 3 3 2 1 1 1 2 3 3 3 2 1 2 1 2 3 7 3 4 4 3 4 3 3 2 3 2 2 2 4 7 8 9 9 9 8 7 8
7 6 6 5 4 2 2 1 1 0 1 1 1 3 2 2 4 3 2 3 3 2 2 2 1 3 4 5 5 5 4 3 3 3 4 8 10 11 11 10 10 10 9
7 6 6 6 6 5 3 2 1 1 0 1 2 2 2 2 4 4 4 3 3 3 2 2 2 2 3 4 5 6 7 7 6 3 3 10 11 12 13 12 12 12 11
6 6 5 6 6 5 4 4 3 2 2 2 2 2 2 1 2 3 3 3 3 3 4 3 3 3 3 4 4 5 6 6 5 5 5 5 12 12 13 14 14 14 14
6 6 9 7 5 7 6 5 4 3 3 3 3 3 3 2 2 2 3 3 3 3 5 4 3 3 3 2 3 2 4 6 6 6 6 5 6 12 14 15 15 15 15
8 8 7 8 8 7 6 4 3 3 3 3 3 3 4 3 3 1 2 2 3 4 3 4 4 3 3 3 3 4 3 3 5 6 5 5 6 6 8 15 17 16 16
11 10 10 8 8 7 5 3 3 3 3 3 3 3 5 4 3 3 1 2 3 3 3 4 3 3 3 4 5 3 3 4 5 6 7 7 8 8 6 10 14 16 18
10 9 7 6 6 6 3 1 1 2 3 3 3 4 5 4 4 3 2 3 2 3 3 3 3 2 2 3 6 5 3 3 3 4 6 6 7 8 8 7 6 9 15
8 9 9 8 7 5 2 3 1 3 2 3 4 6 5 4 4 4 2 3 2 2 3 2 2 3 2 3 2 4 3 3 4 2 3 5 6 6 7 6 5 5 6
13 11 8 10 8 7 4 2 2 3 3 2 2 4 5 5 4 4 4 4 4 2 3 2 2 2 2 3 2 0 4 5 3 4 3 4 3 2 3 4 5 5 5
12 12 12 11 10 8 6 3 2 2 1 0 2 3 5 6 5 6 5 4 4 3 3 2 1 1 2 2 1 0 2 2 3 3 3 3 5 2 3 4 5 4 5
12 9 9 8 8 7 8 5 6 4 4 4 3 3 4 5 6 6 6 5 5 3 4 4 1 2 2 3 2 1 2 2 2 4 2 3 4 4 4 4 5 5 5
8 7 4 3 4 5 6 6 5 4 3 2 2 4 5 4 5 5 6 6 6 4 5 5 4 3 3 2 2 1 1 1 2 3 3 3 3 3 4 4 5 5 6
6 6 5 5 3 4 3 4 5 7 6 3 4 4 4 4 4 5 6 5 6 6 6 6 6 5 5 4 3 4 4 3 2 3 3 3 4 4 3 5 4 4 4
Wind_Direction
215 201 329 107 90 96 100 105 103 100 100 99 98 97 97 93 93 95 91 91 85 84 85 87 89 95 95 94 91 83 81 88 93 95 94 92 91 93 91 88 89 97 95
135 163 238 113 92 96 102 108 103 102 95 97 97 95 97 94 89 87 85 83 83 80 77 83 83 78 86 89 92 95 92 89 88 93 102 98 95 91 89 91 85 92 100
116 124 245 99 100 99 99 99 105 101 103 104 101 97 94 90 89 87 87 85 82 81 81 81 83 86 85 89 89 89 88 94 91 90 87 85 89 94 96 97 96 94 92
137 152 183 118 109 104 104 100 100 102 101 100 98 94 94 90 89 90 82 74 71 76 90 89 93 92 91 92 94 100 98 99 97 92 77 78 102 103 100 94 96 94 95
123 142 159 127 120 112 115 109 103 98 98 97 96 94 86 79 70 80 77 78 79 77 81 93 98 96 95 90 87 82 78 170 100 89 83 75 63 109 107 106 107 100 99
114 134 145 143 131 120 107 106 109 107 104 104 98 87 84 82 80 81 77 80 76 77 85 95 100 98 89 63 39 64 77 130 97 87 79 88 83 124 127 118 110 106 112
109 143 146 151 141 135 125 120 123 125 110 107 98 90 85 80 67 61 90 79 77 78 84 98 102 91 65 37 18 153 120 116 110 98 91 89 80 104 111 128 116 117 101
128 150 160 157 149 141 136 129 128 128 116 105 95 91 87 79 66 56 60 70 77 80 86 90 85 62 43 31 43 113 121 131 112 114 129 121 130 123 120 142 124 124 128
112 135 130 144 158 159 147 133 143 138 123 105 92 82 78 69 66 62 56 65 75 81 83 82 68 51 38 38 40 142 125 111 122 129 157 130 232 179 169 153 155 152 155
94 111 131 137 108 80 134 144 146 117 117 101 84 72 62 41 40 34 44 26 44 61 91 80 61 44 36 33 37 154 83 107 133 155 310 243 223 182 190 171 169 161 182
93 103 140 131 102 119 116 155 121 145 134 82 41 41 43 36 13 17 359 1 3 352 343 347 336 339 355 11 27 136 100 101 164 264 272 263 243 237 232 218 214 198 197
135 141 123 137 134 133 99 81 75 35 55 48 28 36 58 20 336 0 346 351 349 331 317 304 289 292 310 312 316 274 165 193 203 237 250 260 242 247 243 232 228 217 223
149 149 174 140 138 149 84 97 104 75 78 46 13 21 10 334 323 330 345 357 337 326 321 314 299 287 279 273 273 264 248 225 212 231 245 250 244 245 245 244 236 227 227
165 169 162 148 156 183 124 161 230 153 79 41 329 351 346 333 327 339 349 346 345 347 331 22 321 302 274 261 246 242 236 221 217 231 240 247 244 246 246 246 247 243 235
173 177 168 165 178 186 187 202 239 221 254 275 325 323 296 317 332 341 346 4 358 335 5 26 327 301 270 254 245 239 235 227 220 214 235 245 248 242 251 251 251 251 249
177 178 172 184 181 181 200 203 213 222 242 266 301 281 284 226 306 334 358 15 354 349 343 336 314 299 278 268 274 244 240 235 230 220 233 245 255 248 246 253 256 257 256
187 188 185 184 190 190 205 213 209 216 211 235 256 267 265 283 271 315 11 8 342 337 344 341 290 10 5 333 305 272 228 237 232 226 225 235 252 257 248 247 251 255 259
173 185 191 197 186 199 212 208 211 229 232 233 249 274 275 295 238 287 10 359 332 341 351 342 344 357 13 1 335 319 283 261 250 243 239 232 233 247 247 249 250 251 254
179 178 187 197 193 197 201 210 221 241 243 246 224 237 266 271 267 258 281 317 337 347 359 353 349 358 346 337 324 303 293 270 255 248 235 232 236 240 243 239 251 255 252
180 184 190 187 185 171 166 209 225 249 252 226 232 234 236 250 281 287 291 274 322 344 350 5 353 330 299 320 317 311 273 272 276 255 258 257 238 243 251 249 249 261 256
177 179 181 179 185 167 160 167 186 219 230 245 233 233 233 232 248 260 262 269 279 318 325 345 340 357 326 335 347 332 331 344 350 334 308 282 268 258 252 246 247 260 274
184 188 181 191 179 193 193 167 171 175 203 221 245 245 240 230 242 254 247 255 268 287 307 11 57 346 309 14 4 30 352 335 358 12 9 353 343 346 317 273 264 276 279
184 188 189 193 191 189 173 120 99 61 14 330 255 248 234 227 227 226 240 243 252 242 265 266 167 153 300 316 67 168 336 306 325 327 350 357 360 353 333 327 308 301 300
201 189 193 188 185 192 165 175 188 185 200 226 213 227 256 243 242 231 234 229 233 228 258 262 211 178 181 268 324 160 240 213 286 318 319 320 341 355 330 326 322 305 297
173 186 186 180 196 181 183 199 201 226 247 208 217 236 254 265 254 252 233 234 233 223 230 246 257 221 189 231 211 273 246 221 207 224 283 312 323 312 301 314 321 309 312
155 162 164 164 147 140 173 221 227 241 248 247 240 240 243 245 251 249 244 234 234 235 230 231 238 219 220 220 222 217 222 222 232 222 252 278 276 297 296 301 293 284 299